Regional Weather Roundup
Issued by NWS Upton, NY

Home | Current Version | Previous Version | Text Only | Print | Product List | Glossary On
Versions: 1 2 3 4 5 6 7 8 9 10 11 12 13 14 15 16 17 18 19 20 21 22 23 24 25 26 27 28 29 30 31 32 33 34 35 36 37 38 39 40 41 42 43 44 45 46 47 48 49 50
724
ASUS41 KOKX 270109
RWROKX

REGIONAL WEATHER ROUNDUP
NATIONAL WEATHER SERVICE NEW YORK NY
900 PM EDT WED JUL 26 2017

NOTE: "FAIR" INDICATES FEW OR NO CLOUDS BELOW 12,000 FEET WITH NO
SIGNIFICANT WEATHER AND/OR OBSTRUCTIONS TO VISIBILITY.

NYZ071-072-176-178-NJZ106-104-270200-
NEW YORK CITY METRO AREA

CITY           SKY/WX    TMP DP  RH WIND       PRES   REMARKS
Central Park   PTCLDY    69  56  62 CALM      30.17S
Bronx Bot Gard   N/A     68  52  56 CALM      30.14F
LaGuardia APRT CLOUDY    71  58  63 S10       30.14S
Kennedy INTL   CLOUDY    69  59  70 SE6       30.15F
Breezy Point     N/A     68 N/A N/A SE10        N/A
Newark/Liberty MOCLDY    70  58  65 S7        30.14S
Teterboro      MOCLDY    71  53  52 S8        30.13S
$$

NYZ177-179-078>081-270200-
LONG ISLAND NEW YORK

CITY           SKY/WX    TMP DP  RH WIND       PRES   REMARKS
Jones Beach      N/A     68 N/A N/A S6          N/A
Matinecock PT    N/A     68 N/A N/A S6          N/A
Farmingdale    CLOUDY    68  57  68 S7        30.16S
MacArthur/ISP  CLOUDY    68  59  73 S6        30.15S
Shirley        CLOUDY    68  61  78 S3        30.16S
Mt Sinai Harb    N/A    N/A N/A N/A S5          N/A
Westhampton    CLOUDY    62  57  83 CALM      30.18R
East Hampton   FAIR      63  59  86 CALM      30.15S
Montauk          N/A     67  62  84 SW3       30.17S
$$

NYZ052-065-067-270200-
HUDSON VALLEY

CITY           SKY/WX    TMP DP  RH WIND       PRES   REMARKS
White Plains   PTCLDY    65  55  70 S5        30.14F
Larchmont Harb   N/A     68 N/A N/A SE9         N/A
Croton O-T Hud   N/A     70 N/A N/A SE5         N/A
Newburgh       PTCLDY    70  61  73 VRB5      30.14S
Montgomery     PTCLDY    66  61  84 SW5       30.12S
Poughkeepsie   PTCLDY    68  59  73 SE3       30.11S
Albany         CLOUDY    71  59  65 S9        30.10R
$$

NJZ001-105-106-008-010-013-015-019>022-104-270200-
NEW JERSEY

CITY           SKY/WX    TMP DP  RH WIND       PRES   REMARKS
Newark/Liberty MOCLDY    70  58  65 S7        30.14S
Teterboro      MOCLDY    71  53  52 S8        30.13S
Caldwell       MOCLDY    70  54  56 VRB3      30.14F
Somerville     PTCLDY    68  61  78 CALM      30.11F
Linden         FAIR      70  57  63 S3        30.14F
Perth Amboy      N/A     68 N/A N/A S7          N/A
Sussex         PTCLDY    67  59  75 CALM      30.13S
Andover          N/A     67  55  65 CALM      30.14S
Trenton        PTCLDY    70  60  70 SE8       30.13S
Millville      CLEAR     67  64  90 SE6       30.14R
Atlantic City  CLEAR     67  61  81 E3        30.15R
Wrightstown    CLEAR     66  61  82 SE6       30.12S
Toms River     PTCLDY    65  62  90 CALM      30.16S
Belmar         PTCLDY    66  59  78 SE5       30.16S
$$

PAZ047>061-062-071-270200-
EASTERN PENNSYLVANIA

CITY           SKY/WX    TMP DP  RH WIND       PRES   REMARKS
Philadelphia   MOCLDY    71  61  70 SE9       30.14R
Allentown      CLOUDY    73  61  65 SE7       30.12S
Scranton       CLEAR     71  62  73 VRB7      30.11F
$$

CTZ002-004>006-009-010-012-RIZ004-006-007-MAZ004-011-015-270200-
SOUTHERN NEW ENGLAND
 IN CT

CITY           SKY/WX    TMP DP  RH WIND       PRES   REMARKS
Bradley INTL   MOCLDY    70  56  61 S7        30.13R
Hartford       PTCLDY    71  58  63 S9        30.13R
Danbury        CLOUDY    68  58  70 S7        30.16S
Wtrbury/Oxford PTCLDY    64  55  72 S7        30.16S
Bridgeport     PTCLDY    71  57  61 S8        30.15R
Meriden        PTCLDY    67  59  75 S3        30.14S
New Haven      CLOUDY    70  57  63 S7        30.15S
Chester        FAIR      66  57  72 S6        30.16S
Groton         CLEAR     67  61  81 SW10      30.15R
Wilimantic     PTCLDY    70  57  63 S5        30.14S

 IN RI

CITY           SKY/WX    TMP DP  RH WIND       PRES   REMARKS
Providence     PTCLDY    67  59  75 S9        30.15S
Block Island   CLEAR     65  60  84 SW7       30.16S
Westerly       CLEAR     68  60  75 SW5       30.16S
 IN MA

CITY           SKY/WX    TMP DP  RH WIND       PRES   REMARKS
Boston         PTCLDY    69  60  73 S9        30.12S
Worcester      CLOUDY    67  56  67 SW10      30.15R
Westfield      PTCLDY    67  60  78 S6        30.12S
Provincetown   CLEAR     64  60  87 S9        30.16R
Nantucket      CLEAR     58  57  97 S7        30.17R
$$

ANZ330-335-338-340-345-350-353-355-270200-
COASTAL MARINE OBSERVATIONS


STATION/POSITION TIME  SKY/WX   TEMP    WIND        PRES    VSBY  WAVE
                                AIR SEA DIR/SP/G                  HT/PER
                 (UTC)          (F)     (DEG/KT/KT) (MB)    (MI)  (FT/S)
NY HARB ENTRANCE 2350            69 74  170/  4/  8 1020.8          2/ 6
20 S FIRE ISLAND 0050            68 74  160/  4/  6 1021.1          2/ 6
GREAT SOUTH BAY  0030            69 76  200/  6/  8   N/A
23 SSW MONTAUK P 2350            67 74              1021.7          2/ 8
15 E BARNEGAT LI 0030               73                N/A           3/ 5
HUDSON CANYON    2350            68 73   80/  6/  8 1020.7          2/ 5
KINGS POINT      0030            69 73  200/  9/ 12 1020.7
EXECUTION ROCKS  0045            70     150/  6/  8   N/A
CENTRAL LI SOUND 0000            71     190/ 10/ 12   N/A           0
EASTERN LI SOUND NOT AVBL
ROBBINS REEF     0030                   160/ 13/ 14 1021.3
$$


>>>>>>>>>>>>>>>>>>>>>>>>>>>> KEY <<<<<<<<<<<<<<<<<<<<<<<<<<<
>                                                          <
>     SKY/WX - Sky Condition/Present Weather               <
>     TMP    - Temperature in Fahrenheit                   <
>     DP     - Dew Point in Fahrenheit                     <
>     RH     - Relative Humidity in Percent                <
>     WIND   - Direction (from) and Speed in MPH           <
>     PRES   - Mean Sea Level Pressure (inches of Hg)      <
>     WCI    - Wind Chill Index                            <
>     VSB    - VISIBILITY IN MILES                         <
>     HX     - HEAT INDEX                                  <
>     TC     - TEMPERATURE IN CELSIUS                      <
>     VRB    - VARIABLE WIND DIRECTION                     <
>                                                          <
>>>>>>>>>>>>>>>>>>>>>>>>>>>> KEY <<<<<<<<<<<<<<<<<<<<<<<<<<<




USA.gov is the U.S. government's official web portal to all federal, state and local government web resources and services.